Torna al catalogo

DELTA 1 DEB

AttivoSSO
NORAD 13574·DEBRIS·🇺🇸 United States

Lanciato Mar 5, 1978 da Vandenberg Space Force Base

Loading…

Prossimi Passaggi (prossime 24 ore)

TLE

AggiornatoSource: Space-Track

Epoca: Sep 14, 2026, 11:26 UTC

1 13574U 78026FM  26257.47669626  .00000363  00000-0  19845-3 0  9993
2 13574  99.0506 251.1448 0036399 251.0342 262.6497 14.18096603319224

Traccia DELTA 1 DEB in tempo reale con AllMySat

Download on the App Store